EZY2278 EGGD-LXGB

Flight info

Callsign EZY2278
Flight time 2h 28m
Altitude 36000
Route EXMOR N92 DAWLY N864 BHD DCT SALCO DCT NOVAN DCT DELOG DCT CRISA DCT VULPE DCT MAR N864 PIMOS
Aircraft A319/M-SDE3FGHIRWY/LB1

Departure

Time 2026-05-04 18:59
Airport Bristol Airport (EGGD)

Arrival

Time 2026-05-04 21:28
Airport Gibraltar Airport (LXGB)
Time Latitude Longitude Altitude Speed Heading
2026-05-04 18:27 51.38564 -2.70911 611 ft 0 kts 266°
2026-05-04 18:48 51.38564 -2.70905 611 ft 2 kts 269°
2026-05-04 18:48 51.38565 -2.70885 626 ft 3 kts 256°
2026-05-04 18:48 51.38573 -2.70857 624 ft 3 kts 218°
2026-05-04 18:49 51.38590 -2.70842 620 ft 3 kts 188°
2026-05-04 18:49 51.38603 -2.70841 609 ft 1 kts 177°
2026-05-04 18:49 51.38606 -2.70841 608 ft 0 kts 177°
2026-05-04 18:51 51.38595 -2.70840 618 ft 3 kts 177°
2026-05-04 18:51 51.38569 -2.70838 614 ft 5 kts 178°
2026-05-04 18:51 51.38529 -2.70835 612 ft 6 kts 176°
2026-05-04 18:51 51.38490 -2.70833 612 ft 5 kts 187°
2026-05-04 18:52 51.38466 -2.70873 623 ft 5 kts 248°
2026-05-04 18:52 51.38466 -2.70879 613 ft 0 kts 261°
2026-05-04 18:53 51.38466 -2.70880 613 ft 0 kts 262°
2026-05-04 18:53 51.38466 -2.70881 613 ft 0 kts 262°
2026-05-04 18:53 51.38466 -2.70888 613 ft 0 kts 264°
2026-05-04 18:54 51.38466 -2.70889 613 ft 1 kts 264°
2026-05-04 18:54 51.38464 -2.70906 621 ft 2 kts 264°
2026-05-04 18:54 51.38464 -2.70915 618 ft 0 kts 265°
2026-05-04 18:54 51.38464 -2.70921 613 ft 3 kts 265°
2026-05-04 18:55 51.38460 -2.71013 615 ft 13 kts 266°
2026-05-04 18:55 51.38445 -2.71418 613 ft 23 kts 266°
2026-05-04 18:55 51.38435 -2.71699 606 ft 27 kts 266°
2026-05-04 18:56 51.38429 -2.71905 606 ft 29 kts 271°
2026-05-04 18:56 51.38423 -2.72217 616 ft 27 kts 266°
2026-05-04 18:56 51.38412 -2.72499 615 ft 25 kts 266°
2026-05-04 18:56 51.38401 -2.72776 615 ft 25 kts 266°
2026-05-04 18:57 51.38390 -2.73066 615 ft 26 kts 266°
2026-05-04 18:57 51.38386 -2.73172 615 ft 0 kts 266°
2026-05-04 18:57 51.38386 -2.73185 615 ft 7 kts 266°
2026-05-04 18:58 51.38321 -2.73335 623 ft 26 kts 199°
2026-05-04 18:58 51.38219 -2.73257 625 ft 9 kts 103°
2026-05-04 18:58 51.38218 -2.73199 625 ft 0 kts 86°
2026-05-04 18:58 51.38218 -2.73189 625 ft 2 kts 86°
2026-05-04 18:59 51.38226 -2.72979 623 ft 57 kts 86°
2026-05-04 18:59 51.38269 -2.71888 624 ft 137 kts 86°
2026-05-04 18:59 51.38311 -2.70134 945 ft 168 kts 87°
2026-05-04 18:59 51.38363 -2.68284 1922 ft 165 kts 84°
2026-05-04 19:00 51.38428 -2.66368 2577 ft 183 kts 84°
2026-05-04 19:00 51.38504 -2.64176 3135 ft 209 kts 85°
2026-05-04 19:00 51.38586 -2.61727 3566 ft 233 kts 85°
2026-05-04 19:00 51.38675 -2.59014 4090 ft 254 kts 86°
2026-05-04 19:01 51.38600 -2.56131 4868 ft 266 kts 104°
2026-05-04 19:01 51.37740 -2.53495 5728 ft 272 kts 132°
2026-05-04 19:01 51.36188 -2.51768 6639 ft 276 kts 160°
2026-05-04 19:01 51.34301 -2.51379 7530 ft 277 kts 188°
2026-05-04 19:02 51.32508 -2.52457 8440 ft 279 kts 216°
2026-05-04 19:02 51.31234 -2.54774 9336 ft 282 kts 243°
2026-05-04 19:02 51.30764 -2.57829 10195 ft 288 kts 264°
2026-05-04 19:02 51.30490 -2.61131 10475 ft 311 kts 257°
2026-05-04 19:03 51.30035 -2.64612 10906 ft 326 kts 257°
2026-05-04 19:03 51.29568 -2.68194 11602 ft 332 kts 257°
2026-05-04 19:03 51.29094 -2.71837 12350 ft 336 kts 257°
2026-05-04 19:03 51.28739 -2.75555 13089 ft 342 kts 264°
2026-05-04 19:04 51.28662 -2.79371 13858 ft 346 kts 269°
2026-05-04 19:04 51.28747 -2.83244 14505 ft 350 kts 271°
2026-05-04 19:04 51.28897 -2.87151 15173 ft 354 kts 272°
2026-05-04 19:04 51.29050 -2.91087 15827 ft 357 kts 272°
2026-05-04 19:05 51.29178 -2.95071 16478 ft 360 kts 271°
2026-05-04 19:05 51.29266 -2.99076 17133 ft 363 kts 268°
2026-05-04 19:05 51.28877 -3.03046 17751 ft 364 kts 251°
2026-05-04 19:05 51.27899 -3.06764 18378 ft 365 kts 241°
2026-05-04 19:06 51.26626 -3.10297 18941 ft 367 kts 237°
2026-05-04 19:06 51.25254 -3.13789 19165 ft 378 kts 236°
2026-05-04 19:06 51.23844 -3.17453 19250 ft 396 kts 237°
2026-05-04 19:06 51.22446 -3.21325 19339 ft 410 kts 239°
2026-05-04 19:07 51.21079 -3.25395 19466 ft 422 kts 241°
2026-05-04 19:07 51.19614 -3.29513 19586 ft 431 kts 233°
2026-05-04 19:07 51.17595 -3.33086 19710 ft 437 kts 219°
2026-05-04 19:07 51.15049 -3.35643 19887 ft 440 kts 203°
2026-05-04 19:08 51.12110 -3.36988 20180 ft 442 kts 188°
2026-05-04 19:08 51.09028 -3.37515 20502 ft 444 kts 186°
2026-05-04 19:08 51.05954 -3.38023 20826 ft 445 kts 186°
2026-05-04 19:08 51.02864 -3.38549 21150 ft 446 kts 186°
2026-05-04 19:09 50.99775 -3.39093 21472 ft 448 kts 186°
2026-05-04 19:09 50.96787 -3.39628 21772 ft 449 kts 186°
2026-05-04 19:09 50.93678 -3.40181 22092 ft 450 kts 186°
2026-05-04 19:09 50.90594 -3.40721 22404 ft 451 kts 186°
2026-05-04 19:10 50.87451 -3.41264 22707 ft 453 kts 186°
2026-05-04 19:10 50.84317 -3.41801 23000 ft 454 kts 186°
2026-05-04 19:10 50.81178 -3.42335 23292 ft 455 kts 186°
2026-05-04 19:10 50.78005 -3.42876 23558 ft 456 kts 186°
2026-05-04 19:11 50.74841 -3.43415 23807 ft 457 kts 186°
2026-05-04 19:11 50.71711 -3.43950 24035 ft 458 kts 186°
2026-05-04 19:11 50.68531 -3.44498 24266 ft 460 kts 186°
2026-05-04 19:11 50.65336 -3.45047 24494 ft 461 kts 186°
2026-05-04 19:12 50.62142 -3.45593 24722 ft 462 kts 185°
2026-05-04 19:12 50.55711 -3.46689 25239 ft 463 kts 185°
2026-05-04 19:12 50.52552 -3.47221 25594 ft 462 kts 185°
2026-05-04 19:13 50.49358 -3.47760 25963 ft 460 kts 185°
2026-05-04 19:13 50.46176 -3.48302 26332 ft 459 kts 185°
2026-05-04 19:13 50.43014 -3.48842 26710 ft 457 kts 185°
2026-05-04 19:13 50.39810 -3.49379 27095 ft 456 kts 184°
2026-05-04 19:14 50.36690 -3.49760 27485 ft 454 kts 182°
2026-05-04 19:14 50.33540 -3.49979 27891 ft 453 kts 180°
2026-05-04 19:14 50.30354 -3.50095 28323 ft 451 kts 180°
2026-05-04 19:14 50.27264 -3.50169 28738 ft 449 kts 179°
2026-05-04 19:15 50.24134 -3.50254 29185 ft 448 kts 180°
2026-05-04 19:15 50.21017 -3.50373 29629 ft 446 kts 180°
2026-05-04 19:15 50.17911 -3.50525 30072 ft 445 kts 180°
2026-05-04 19:15 50.14824 -3.50701 30415 ft 444 kts 180°
2026-05-04 19:16 50.11727 -3.50888 30693 ft 445 kts 180°
2026-05-04 19:16 50.08625 -3.51072 30950 ft 446 kts 180°
2026-05-04 19:16 50.05550 -3.51246 31201 ft 448 kts 180°
2026-05-04 19:16 50.02428 -3.51415 31454 ft 449 kts 180°
2026-05-04 19:17 49.99303 -3.51581 31663 ft 448 kts 180°
2026-05-04 19:17 49.96202 -3.51739 31795 ft 445 kts 180°
2026-05-04 19:17 49.93115 -3.51892 31927 ft 442 kts 180°
2026-05-04 19:17 49.90032 -3.52048 32058 ft 440 kts 180°
2026-05-04 19:18 49.86980 -3.52209 32188 ft 437 kts 180°
2026-05-04 19:18 49.84019 -3.52371 32317 ft 436 kts 180°
2026-05-04 19:18 49.80916 -3.52542 32452 ft 434 kts 181°
2026-05-04 19:18 49.77891 -3.52712 32586 ft 437 kts 181°
2026-05-04 19:19 49.74830 -3.52887 32722 ft 442 kts 181°
2026-05-04 19:19 49.71744 -3.53063 32858 ft 446 kts 181°
2026-05-04 19:19 49.68663 -3.53238 32994 ft 450 kts 181°
2026-05-04 19:19 49.65504 -3.53410 33130 ft 454 kts 181°
2026-05-04 19:20 49.62333 -3.53577 33330 ft 457 kts 181°
2026-05-04 19:20 49.59149 -3.53741 33582 ft 458 kts 181°
2026-05-04 19:20 49.55956 -3.53906 33851 ft 459 kts 181°
2026-05-04 19:20 49.52761 -3.54068 34111 ft 460 kts 181°
2026-05-04 19:21 49.49598 -3.54233 34340 ft 460 kts 181°
2026-05-04 19:21 49.46397 -3.54405 34578 ft 461 kts 181°
2026-05-04 19:21 49.43189 -3.54577 34825 ft 461 kts 181°
2026-05-04 19:21 49.39979 -3.54746 35079 ft 461 kts 181°
2026-05-04 19:22 49.36766 -3.54912 35313 ft 462 kts 181°
2026-05-04 19:22 49.33542 -3.55080 35543 ft 462 kts 181°
2026-05-04 19:22 49.30327 -3.55245 35766 ft 462 kts 181°
2026-05-04 19:22 49.27110 -3.55410 35983 ft 463 kts 181°
2026-05-04 19:23 49.23882 -3.55578 36096 ft 464 kts 181°
2026-05-04 19:23 49.17433 -3.55913 36111 ft 463 kts 181°
2026-05-04 19:24 49.10992 -3.56247 36114 ft 463 kts 181°
2026-05-04 19:24 49.04592 -3.56569 36118 ft 463 kts 181°
2026-05-04 19:25 48.98142 -3.56907 36121 ft 463 kts 181°
2026-05-04 19:25 48.91701 -3.57251 36124 ft 463 kts 181°
2026-05-04 19:26 48.85260 -3.57573 36128 ft 462 kts 181°
2026-05-04 19:26 48.78860 -3.57896 36129 ft 462 kts 181°
2026-05-04 19:27 48.72424 -3.58233 36129 ft 462 kts 181°
2026-05-04 19:27 48.65989 -3.58557 36125 ft 462 kts 181°
2026-05-04 19:28 48.59562 -3.58878 36101 ft 462 kts 181°
2026-05-04 19:28 48.53119 -3.59196 36100 ft 463 kts 181°
2026-05-04 19:29 48.46717 -3.59522 36101 ft 463 kts 181°
2026-05-04 19:29 48.40267 -3.59857 36103 ft 463 kts 181°
2026-05-04 19:30 48.33818 -3.60183 36103 ft 463 kts 181°
2026-05-04 19:30 48.27373 -3.60499 36102 ft 463 kts 181°
2026-05-04 19:31 48.20971 -3.60821 36100 ft 463 kts 181°
2026-05-04 19:31 48.14512 -3.61148 36102 ft 463 kts 181°
2026-05-04 19:32 48.08069 -3.61472 36104 ft 463 kts 181°
2026-05-04 19:32 48.01625 -3.61785 36106 ft 463 kts 181°
2026-05-04 19:33 47.95176 -3.62099 36108 ft 463 kts 181°
2026-05-04 19:33 47.88925 -3.62413 36111 ft 463 kts 181°
2026-05-04 19:34 47.82477 -3.62732 36107 ft 462 kts 182°
2026-05-04 19:34 47.76044 -3.63054 36110 ft 462 kts 181°
2026-05-04 19:35 47.69619 -3.63362 36118 ft 462 kts 181°
2026-05-04 19:35 47.63232 -3.63673 36117 ft 461 kts 182°
2026-05-04 19:36 47.56806 -3.63993 36119 ft 461 kts 181°
2026-05-04 19:36 47.50395 -3.64301 36119 ft 460 kts 181°
2026-05-04 19:37 47.43988 -3.64612 36117 ft 460 kts 181°
2026-05-04 19:37 47.37588 -3.64919 36121 ft 459 kts 181°
2026-05-04 19:38 47.32282 -3.65180 36118 ft 459 kts 181°
2026-05-04 19:38 47.24857 -3.65540 36113 ft 458 kts 181°
2026-05-04 19:39 47.19554 -3.65790 36114 ft 459 kts 181°
2026-05-04 19:39 47.13175 -3.66094 36108 ft 459 kts 181°
2026-05-04 19:40 47.06786 -3.66393 36109 ft 459 kts 181°
2026-05-04 19:40 47.00402 -3.66693 36109 ft 459 kts 181°
2026-05-04 19:41 46.94000 -3.67003 36110 ft 460 kts 181°
2026-05-04 19:41 46.87638 -3.67317 36113 ft 460 kts 182°
2026-05-04 19:42 46.81230 -3.67625 36115 ft 460 kts 182°
2026-05-04 19:42 46.74835 -3.67922 36120 ft 459 kts 182°
2026-05-04 19:43 46.68452 -3.68226 36117 ft 459 kts 182°
2026-05-04 19:43 46.62060 -3.68528 36118 ft 458 kts 182°
2026-05-04 19:44 46.55721 -3.68826 36117 ft 458 kts 182°
2026-05-04 19:44 46.49349 -3.69129 36119 ft 458 kts 182°
2026-05-04 19:45 46.42976 -3.69419 36118 ft 457 kts 182°
2026-05-04 19:45 46.36606 -3.69711 36115 ft 457 kts 182°
2026-05-04 19:46 46.30244 -3.70076 36118 ft 457 kts 184°
2026-05-04 19:46 46.23945 -3.70943 36121 ft 457 kts 187°
2026-05-04 19:47 46.17618 -3.72056 36122 ft 457 kts 187°
2026-05-04 19:47 46.11316 -3.73082 36125 ft 457 kts 186°
2026-05-04 19:48 46.04989 -3.74008 36125 ft 457 kts 186°
2026-05-04 19:48 45.98649 -3.74910 36122 ft 457 kts 186°
2026-05-04 19:49 45.92304 -3.75846 36124 ft 457 kts 186°
2026-05-04 19:49 45.86020 -3.76785 36122 ft 457 kts 186°
2026-05-04 19:50 45.79698 -3.77719 36124 ft 456 kts 186°
2026-05-04 19:50 45.73378 -3.78647 36120 ft 456 kts 186°
2026-05-04 19:51 45.67057 -3.79574 36118 ft 456 kts 186°
2026-05-04 19:51 45.60742 -3.80494 36118 ft 456 kts 186°
2026-05-04 19:52 45.54416 -3.81418 36124 ft 456 kts 186°
2026-05-04 19:52 45.48138 -3.82333 36123 ft 456 kts 186°
2026-05-04 19:53 45.41827 -3.83250 36121 ft 456 kts 186°
2026-05-04 19:53 45.35510 -3.84168 36120 ft 456 kts 186°
2026-05-04 19:54 45.29199 -3.85081 36122 ft 456 kts 186°
2026-05-04 19:54 45.22875 -3.85985 36127 ft 457 kts 187°
2026-05-04 19:55 45.16541 -3.86899 36130 ft 457 kts 187°
2026-05-04 19:55 45.10209 -3.87819 36131 ft 457 kts 187°
2026-05-04 19:56 45.03878 -3.88720 36135 ft 457 kts 187°
2026-05-04 19:56 44.97571 -3.89613 36135 ft 457 kts 187°
2026-05-04 19:57 44.91235 -3.90521 36135 ft 457 kts 187°
2026-05-04 19:57 44.84908 -3.91428 36137 ft 457 kts 187°
2026-05-04 19:58 44.78572 -3.92331 36136 ft 457 kts 187°
2026-05-04 19:58 44.72247 -3.93222 36136 ft 457 kts 187°
2026-05-04 19:59 44.65962 -3.94098 36135 ft 457 kts 187°
2026-05-04 19:59 44.59631 -3.95000 36138 ft 457 kts 187°
2026-05-04 20:00 44.53303 -3.95900 36140 ft 457 kts 187°
2026-05-04 20:00 44.46976 -3.96785 36142 ft 457 kts 187°
2026-05-04 20:01 44.40645 -3.97669 36144 ft 457 kts 187°
2026-05-04 20:01 44.34318 -3.98556 36143 ft 456 kts 187°
2026-05-04 20:02 44.27994 -3.99380 36159 ft 458 kts 186°
2026-05-04 20:02 44.21647 -4.00089 36146 ft 457 kts 186°
2026-05-04 20:02 44.18475 -4.00428 36043 ft 457 kts 186°
2026-05-04 20:03 44.15353 -4.00764 36035 ft 456 kts 186°
2026-05-04 20:03 44.09013 -4.01473 36037 ft 456 kts 186°
2026-05-04 20:04 44.02677 -4.02203 36036 ft 457 kts 186°
2026-05-04 20:04 43.96373 -4.02929 36038 ft 457 kts 186°
2026-05-04 20:05 43.90023 -4.03644 36041 ft 457 kts 186°
2026-05-04 20:05 43.83674 -4.04360 36040 ft 457 kts 187°
2026-05-04 20:06 43.77319 -4.05073 36041 ft 458 kts 187°
2026-05-04 20:06 43.70964 -4.05783 36045 ft 458 kts 187°
2026-05-04 20:07 43.64614 -4.06511 36050 ft 458 kts 187°
2026-05-04 20:07 43.58305 -4.07226 36054 ft 458 kts 187°
2026-05-04 20:08 43.51942 -4.07937 36056 ft 458 kts 187°
2026-05-04 20:08 43.45585 -4.08645 36057 ft 458 kts 187°
2026-05-04 20:09 43.39260 -4.09348 36056 ft 458 kts 187°
2026-05-04 20:09 43.32899 -4.10052 36060 ft 458 kts 187°
2026-05-04 20:10 43.26537 -4.10757 36062 ft 458 kts 187°
2026-05-04 20:10 43.20176 -4.11470 36067 ft 458 kts 187°
2026-05-04 20:11 43.13816 -4.12170 36062 ft 458 kts 187°
2026-05-04 20:11 43.07490 -4.12863 36056 ft 458 kts 187°
2026-05-04 20:12 43.01129 -4.13566 36051 ft 458 kts 188°
2026-05-04 20:12 42.94768 -4.14273 36047 ft 458 kts 188°
2026-05-04 20:13 42.88401 -4.14972 36052 ft 458 kts 188°
2026-05-04 20:13 42.82027 -4.15662 36054 ft 459 kts 188°
2026-05-04 20:14 42.75702 -4.16345 36052 ft 459 kts 188°
2026-05-04 20:14 42.69340 -4.17039 36048 ft 458 kts 188°
2026-05-04 20:15 42.62975 -4.17729 36041 ft 458 kts 188°
2026-05-04 20:15 42.56618 -4.18425 36036 ft 458 kts 188°
2026-05-04 20:16 42.50247 -4.19116 36037 ft 458 kts 189°
2026-05-04 20:16 42.43879 -4.19806 36036 ft 458 kts 189°
2026-05-04 20:17 42.37556 -4.20490 36035 ft 459 kts 189°
2026-05-04 20:17 42.31173 -4.21171 36035 ft 459 kts 189°
2026-05-04 20:18 42.24807 -4.21856 36034 ft 459 kts 189°
2026-05-04 20:18 42.18477 -4.22545 36030 ft 458 kts 189°
2026-05-04 20:19 42.12120 -4.23231 36025 ft 458 kts 189°
2026-05-04 20:19 42.05763 -4.23903 36031 ft 458 kts 189°
2026-05-04 20:20 41.99401 -4.24573 36021 ft 457 kts 189°
2026-05-04 20:20 41.93044 -4.25243 36025 ft 457 kts 189°
2026-05-04 20:21 41.86696 -4.25918 36024 ft 457 kts 189°
2026-05-04 20:21 41.77224 -4.26928 36023 ft 457 kts 190°
2026-05-04 20:22 41.70885 -4.27599 36017 ft 456 kts 190°
2026-05-04 20:22 41.64561 -4.28259 36018 ft 456 kts 190°
2026-05-04 20:23 41.58232 -4.28923 36017 ft 456 kts 190°
2026-05-04 20:23 41.51915 -4.29595 36017 ft 455 kts 190°
2026-05-04 20:24 41.45607 -4.30257 36015 ft 455 kts 190°
2026-05-04 20:24 41.39296 -4.30915 36012 ft 454 kts 190°
2026-05-04 20:25 41.34019 -4.31464 36008 ft 454 kts 190°
2026-05-04 20:25 41.27725 -4.32109 36011 ft 454 kts 190°
2026-05-04 20:26 41.21431 -4.32759 36006 ft 453 kts 191°
2026-05-04 20:26 41.15147 -4.33420 36001 ft 453 kts 191°
2026-05-04 20:27 41.08906 -4.34071 35998 ft 453 kts 191°
2026-05-04 20:27 41.02585 -4.34722 35999 ft 453 kts 191°
2026-05-04 20:28 40.96322 -4.35371 35999 ft 453 kts 191°
2026-05-04 20:28 40.90033 -4.36021 35996 ft 453 kts 191°
2026-05-04 20:29 40.83732 -4.36672 35995 ft 453 kts 191°
2026-05-04 20:29 40.77431 -4.37322 35997 ft 454 kts 191°
2026-05-04 20:30 40.71142 -4.37965 36001 ft 453 kts 191°
2026-05-04 20:30 40.64874 -4.38604 36006 ft 453 kts 191°
2026-05-04 20:31 40.58580 -4.39243 36000 ft 453 kts 191°
2026-05-04 20:31 40.52277 -4.39884 35995 ft 453 kts 192°
2026-05-04 20:32 40.45993 -4.40521 35991 ft 453 kts 192°
2026-05-04 20:32 40.39734 -4.41157 35982 ft 453 kts 192°
2026-05-04 20:33 40.33435 -4.41799 35980 ft 452 kts 192°
2026-05-04 20:33 40.27195 -4.42428 35979 ft 452 kts 192°
2026-05-04 20:34 40.20908 -4.43058 35975 ft 452 kts 192°
2026-05-04 20:34 40.14622 -4.43692 35973 ft 452 kts 192°
2026-05-04 20:35 40.08346 -4.44331 35968 ft 452 kts 192°
2026-05-04 20:35 40.02064 -4.44955 35965 ft 452 kts 192°
2026-05-04 20:36 39.95824 -4.45580 35964 ft 452 kts 192°
2026-05-04 20:36 39.89552 -4.46200 35970 ft 452 kts 192°
2026-05-04 20:37 39.83268 -4.46829 35969 ft 452 kts 192°
2026-05-04 20:37 39.76990 -4.47459 35971 ft 451 kts 192°
2026-05-04 20:38 39.70759 -4.48058 35975 ft 452 kts 192°
2026-05-04 20:38 39.64509 -4.48672 35968 ft 448 kts 192°
2026-05-04 20:39 39.58283 -4.49305 35969 ft 450 kts 193°
2026-05-04 20:39 39.52029 -4.49942 35973 ft 451 kts 192°
2026-05-04 20:40 39.45747 -4.50563 35976 ft 452 kts 192°
2026-05-04 20:40 39.39463 -4.51178 35977 ft 453 kts 192°
2026-05-04 20:41 39.33160 -4.51795 36031 ft 454 kts 193°
2026-05-04 20:41 39.30008 -4.52105 36230 ft 456 kts 192°
2026-05-04 20:41 39.26842 -4.52419 36439 ft 457 kts 192°
2026-05-04 20:42 39.23762 -4.52723 36662 ft 457 kts 192°
2026-05-04 20:42 39.20591 -4.53032 36905 ft 457 kts 192°
2026-05-04 20:42 39.17414 -4.53338 37026 ft 457 kts 192°
2026-05-04 20:42 39.14253 -4.53641 37019 ft 455 kts 192°
2026-05-04 20:43 39.07934 -4.54251 37022 ft 454 kts 192°
2026-05-04 20:43 39.01653 -4.54861 37021 ft 455 kts 192°
2026-05-04 20:44 38.95336 -4.55485 37022 ft 454 kts 192°
2026-05-04 20:44 38.89100 -4.56391 37027 ft 448 kts 197°
2026-05-04 20:45 38.82971 -4.57763 37029 ft 446 kts 199°
2026-05-04 20:45 38.76866 -4.59193 37031 ft 446 kts 198°
2026-05-04 20:46 38.70724 -4.60506 37028 ft 447 kts 197°
2026-05-04 20:46 38.64601 -4.61736 37033 ft 447 kts 197°
2026-05-04 20:47 38.58447 -4.62984 37035 ft 447 kts 197°
2026-05-04 20:47 38.52309 -4.64256 37029 ft 446 kts 197°
2026-05-04 20:48 38.46213 -4.65528 37029 ft 446 kts 197°
2026-05-04 20:48 38.40065 -4.66797 37031 ft 446 kts 197°
2026-05-04 20:49 38.33968 -4.68049 37035 ft 446 kts 197°
2026-05-04 20:49 38.27832 -4.69307 37036 ft 446 kts 197°
2026-05-04 20:50 38.21701 -4.70568 37040 ft 446 kts 198°
2026-05-04 20:50 38.15565 -4.71829 37029 ft 446 kts 198°
2026-05-04 20:51 38.09473 -4.73077 37027 ft 446 kts 198°
2026-05-04 20:51 38.03347 -4.74328 37025 ft 446 kts 198°
2026-05-04 20:52 37.97203 -4.75580 37027 ft 446 kts 198°
2026-05-04 20:52 37.91073 -4.76821 37027 ft 446 kts 197°
2026-05-04 20:53 37.84940 -4.78059 37027 ft 447 kts 198°
2026-05-04 20:53 37.78798 -4.79312 37028 ft 446 kts 198°
2026-05-04 20:54 37.72694 -4.80549 37024 ft 447 kts 197°
2026-05-04 20:54 37.66548 -4.81782 37030 ft 447 kts 197°
2026-05-04 20:55 37.60403 -4.83018 37027 ft 447 kts 198°
2026-05-04 20:55 37.54260 -4.84257 37031 ft 447 kts 198°
2026-05-04 20:56 37.48117 -4.85492 37031 ft 447 kts 198°
2026-05-04 20:56 37.41975 -4.86720 37040 ft 447 kts 197°
2026-05-04 20:57 37.35836 -4.87951 37041 ft 446 kts 197°
2026-05-04 20:57 37.29736 -4.89171 37047 ft 447 kts 197°
2026-05-04 20:58 37.23559 -4.90400 37048 ft 447 kts 197°
2026-05-04 20:58 37.17444 -4.91619 37052 ft 446 kts 197°
2026-05-04 20:59 37.14389 -4.92230 36751 ft 444 kts 197°
2026-05-04 20:59 37.11380 -4.92828 36103 ft 441 kts 197°
2026-05-04 20:59 37.08351 -4.93430 35447 ft 440 kts 197°
2026-05-04 20:59 37.05319 -4.93923 34851 ft 443 kts 189°
2026-05-04 21:00 37.02229 -4.93834 34316 ft 444 kts 185°
2026-05-04 21:00 36.99157 -4.93671 33745 ft 440 kts 185°
2026-05-04 21:00 36.96105 -4.93505 33127 ft 436 kts 185°
2026-05-04 21:00 36.93096 -4.93342 32729 ft 428 kts 185°
2026-05-04 21:01 36.91104 -4.93232 32500 ft 422 kts 185°
2026-05-04 21:01 36.88185 -4.93064 31788 ft 420 kts 185°
2026-05-04 21:01 36.85727 -4.92908 30816 ft 431 kts 184°
2026-05-04 21:02 36.82694 -4.92698 28638 ft 448 kts 184°
2026-05-04 21:02 36.79419 -4.92462 26395 ft 484 kts 182°
2026-05-04 21:02 36.76013 -4.92199 24572 ft 489 kts 181°
2026-05-04 21:02 36.72593 -4.91934 23034 ft 482 kts 181°
2026-05-04 21:03 36.69425 -4.91679 23571 ft 434 kts 181°
2026-05-04 21:03 36.66553 -4.91399 23933 ft 395 kts 181°
2026-05-04 21:03 36.63969 -4.91104 24220 ft 360 kts 181°
2026-05-04 21:03 36.61568 -4.90792 24235 ft 337 kts 181°
2026-05-04 21:04 36.59269 -4.90477 23865 ft 328 kts 181°
2026-05-04 21:04 36.57027 -4.90169 23087 ft 320 kts 181°
2026-05-04 21:04 36.54726 -4.89723 20285 ft 378 kts 174°
2026-05-04 21:04 36.51949 -4.88826 18669 ft 403 kts 162°
2026-05-04 21:05 36.49720 -4.87181 19801 ft 352 kts 144°
2026-05-04 21:05 36.48088 -4.84924 17912 ft 376 kts 117°
2026-05-04 21:05 36.48234 -4.81538 14489 ft 444 kts 51°
2026-05-04 21:05 36.50715 -4.79478 13403 ft 422 kts 12°
2026-05-04 21:06 36.53557 -4.78875 12083 ft 411 kts
2026-05-04 21:06 36.56355 -4.78976 11196 ft 389 kts 341°
2026-05-04 21:06 36.58636 -4.80351 11026 ft 346 kts 316°
2026-05-04 21:06 36.60075 -4.82575 10432 ft 324 kts 292°
2026-05-04 21:07 36.60470 -4.85251 9638 ft 314 kts 264°
2026-05-04 21:07 36.59749 -4.87761 8778 ft 310 kts 236°
2026-05-04 21:07 36.58740 -4.89010 8219 ft 311 kts 216°
2026-05-04 21:07 36.56716 -4.89892 7400 ft 314 kts 185°
2026-05-04 21:08 36.54585 -4.89380 6729 ft 313 kts 158°
2026-05-04 21:08 36.52667 -4.88359 6598 ft 286 kts 169°
2026-05-04 21:08 36.50806 -4.88439 6480 ft 257 kts 200°
2026-05-04 21:08 36.49254 -4.89318 6355 ft 234 kts 214°
2026-05-04 21:09 36.47898 -4.90281 6221 ft 216 kts 205°
2026-05-04 21:09 36.46480 -4.90765 5887 ft 212 kts 188°
2026-05-04 21:09 36.45017 -4.90844 5475 ft 209 kts 182°
2026-05-04 21:09 36.43690 -4.90360 5033 ft 202 kts 129°
2026-05-04 21:10 36.43405 -4.88787 4862 ft 185 kts 76°
2026-05-04 21:10 36.43905 -4.87279 4399 ft 196 kts 57°
2026-05-04 21:10 36.44914 -4.86105 4372 ft 204 kts 23°
2026-05-04 21:10 36.46296 -4.85921 4369 ft 203 kts 347°
2026-05-04 21:11 36.47493 -4.86798 4374 ft 203 kts 312°
2026-05-04 21:11 36.48077 -4.88381 4374 ft 204 kts 279°
2026-05-04 21:11 36.48060 -4.90145 4375 ft 205 kts 264°
2026-05-04 21:11 36.47685 -4.91843 4375 ft 202 kts 249°
2026-05-04 21:12 36.46967 -4.93343 4369 ft 203 kts 233°
2026-05-04 21:12 36.45947 -4.94568 4384 ft 205 kts 218°
2026-05-04 21:12 36.44704 -4.95416 4381 ft 210 kts 203°
2026-05-04 21:12 36.43290 -4.95829 4382 ft 210 kts 187°
2026-05-04 21:13 36.41870 -4.95761 4353 ft 198 kts 171°
2026-05-04 21:13 36.40568 -4.95263 4181 ft 191 kts 156°
2026-05-04 21:13 36.39462 -4.94415 4024 ft 190 kts 141°
2026-05-04 21:13 36.38431 -4.93344 3973 ft 190 kts 141°
2026-05-04 21:14 36.37358 -4.92418 3975 ft 191 kts 148°
2026-05-04 21:14 36.36191 -4.91632 3902 ft 191 kts 155°
2026-05-04 21:14 36.34971 -4.91008 3663 ft 189 kts 162°
2026-05-04 21:14 36.33707 -4.90557 3579 ft 190 kts 168°
2026-05-04 21:15 36.32405 -4.90277 3579 ft 190 kts 175°
2026-05-04 21:15 36.31088 -4.90171 3582 ft 190 kts 180°
2026-05-04 21:15 36.29775 -4.90107 3581 ft 188 kts 180°
2026-05-04 21:15 36.28465 -4.90042 3577 ft 188 kts 180°
2026-05-04 21:16 36.27163 -4.89975 3575 ft 186 kts 180°
2026-05-04 21:16 36.25896 -4.89907 3576 ft 179 kts 179°
2026-05-04 21:16 36.24660 -4.89844 3583 ft 177 kts 180°
2026-05-04 21:16 36.23427 -4.89780 3578 ft 177 kts 181°
2026-05-04 21:17 36.22190 -4.89715 3567 ft 177 kts 180°
2026-05-04 21:17 36.20963 -4.89651 3486 ft 177 kts 180°
2026-05-04 21:17 36.19738 -4.89587 3479 ft 177 kts 181°
2026-05-04 21:17 36.18512 -4.89527 3427 ft 175 kts 181°
2026-05-04 21:18 36.17343 -4.89761 3385 ft 167 kts 205°
2026-05-04 21:18 36.16341 -4.90457 3391 ft 164 kts 223°
2026-05-04 21:18 36.15544 -4.91442 3386 ft 164 kts 226°
2026-05-04 21:18 36.14447 -4.91829 3396 ft 176 kts 174°
2026-05-04 21:19 36.13254 -4.91515 3375 ft 174 kts 180°
2026-05-04 21:19 36.12237 -4.92081 3384 ft 161 kts 238°
2026-05-04 21:19 36.12061 -4.93366 3411 ft 153 kts 282°
2026-05-04 21:19 36.12263 -4.94662 3403 ft 153 kts 282°
2026-05-04 21:20 36.12428 -4.95930 3248 ft 151 kts 281°
2026-05-04 21:20 36.12583 -4.97200 3090 ft 148 kts 281°
2026-05-04 21:20 36.12734 -4.98461 3020 ft 148 kts 280°
2026-05-04 21:20 36.12879 -4.99703 3005 ft 144 kts 281°
2026-05-04 21:21 36.13021 -5.00926 3002 ft 142 kts 281°
2026-05-04 21:21 36.13160 -5.02135 3003 ft 142 kts 281°
2026-05-04 21:21 36.13297 -5.03343 3003 ft 142 kts 280°
2026-05-04 21:21 36.13435 -5.04562 2998 ft 144 kts 281°
2026-05-04 21:22 36.13572 -5.05782 2926 ft 142 kts 281°
2026-05-04 21:22 36.13706 -5.06989 2862 ft 142 kts 281°
2026-05-04 21:22 36.13840 -5.08195 2805 ft 140 kts 281°
2026-05-04 21:22 36.13971 -5.09384 2790 ft 139 kts 282°
2026-05-04 21:23 36.14099 -5.10559 2592 ft 138 kts 281°
2026-05-04 21:23 36.14227 -5.11729 2347 ft 137 kts 280°
2026-05-04 21:23 36.14356 -5.12911 2078 ft 139 kts 280°
2026-05-04 21:23 36.14484 -5.14091 1877 ft 136 kts 280°
2026-05-04 21:24 36.14610 -5.15241 1752 ft 135 kts 280°
2026-05-04 21:24 36.14734 -5.16369 1557 ft 134 kts 279°
2026-05-04 21:24 36.14858 -5.17507 1439 ft 134 kts 279°
2026-05-04 21:24 36.14982 -5.18648 1412 ft 134 kts 279°
2026-05-04 21:25 36.15108 -5.19796 1366 ft 135 kts 279°
2026-05-04 21:25 36.15234 -5.20951 1313 ft 136 kts 278°
2026-05-04 21:25 36.15359 -5.22102 1178 ft 134 kts 278°
2026-05-04 21:25 36.15483 -5.23223 903 ft 130 kts 277°
2026-05-04 21:26 36.15489 -5.24341 510 ft 131 kts 266°
2026-05-04 21:26 36.15448 -5.25456 412 ft 131 kts 267°
2026-05-04 21:26 36.15408 -5.26586 411 ft 132 kts 266°
2026-05-04 21:26 36.15369 -5.27736 407 ft 136 kts 266°
2026-05-04 21:27 36.15330 -5.28911 357 ft 137 kts 267°
2026-05-04 21:27 36.15291 -5.30082 306 ft 135 kts 267°
2026-05-04 21:27 36.15251 -5.31233 308 ft 135 kts 267°
2026-05-04 21:27 36.15211 -5.32411 255 ft 136 kts 267°
2026-05-04 21:28 36.15170 -5.33583 143 ft 138 kts 267°
2026-05-04 21:28 36.15131 -5.34772 25 ft 134 kts 266°
2026-05-04 21:28 36.15093 -5.35645 19 ft 48 kts 268°
2026-05-04 21:28 36.15084 -5.35843 21 ft 14 kts 255°
2026-05-04 21:29 36.15069 -5.35934 19 ft 8 kts 312°
2026-05-04 21:29 36.15091 -5.35898 20 ft 6 kts 88°
2026-05-04 21:29 36.15096 -5.35800 19 ft 19 kts 86°
2026-05-04 21:29 36.15102 -5.35604 23 ft 25 kts 88°
2026-05-04 21:30 36.15108 -5.35391 21 ft 25 kts 88°
2026-05-04 21:30 36.15115 -5.35180 24 ft 24 kts 88°
2026-05-04 21:30 36.15121 -5.35026 22 ft 15 kts 87°
2026-05-04 21:30 36.15127 -5.34888 21 ft 17 kts 86°
2026-05-04 21:31 36.15177 -5.34678 20 ft 8 kts 15°
2026-05-04 21:31 36.15206 -5.34672 20 ft 0 kts 11°
2026-05-04 21:31 36.15229 -5.34641 18 ft 10 kts 66°
2026-05-04 21:32 36.15232 -5.34551 18 ft 10 kts 91°
2026-05-04 21:32 36.15255 -5.34521 18 ft 4 kts 19°
2026-05-04 21:32 36.15280 -5.34525 17 ft 4 kts 359°
2026-05-04 21:32 36.15312 -5.34525 17 ft 4 kts 358°
2026-05-04 21:33 36.15313 -5.34525 17 ft 0 kts 358°